| time (UTC) | temp F | wind direction | speed knots | gust knots | rain 1hr in | rain 24hr in | rain mn in | humidity % | barometer mb |
| 20260504023505 | 60 | 287 | 0.0 | 0.0 | 0.00 | 0.00 | 0.00 | 48 | 1003.1 |
| 20260504023004 | 60 | 287 | 0.0 | 0.0 | 0.00 | 0.00 | 0.00 | 49 | 1003.1 |
| 20260504020505 | 58 | 264 | 0.0 | 0.9 | 0.00 | 0.00 | 0.00 | 53 | 1002.9 |
| 20260504015004 | 59 | 264 | 0.0 | 0.0 | 0.00 | 0.00 | 0.00 | 53 | 1002.7 |
| 20260504014504 | 59 | 264 | 0.0 | 0.0 | 0.00 | 0.00 | 0.00 | 53 | 1002.6 |
| 20260504014004 | 59 | 264 | 0.0 | 0.0 | 0.00 | 0.00 | 0.00 | 53 | 1002.6 |
| 20260504012504 | 60 | 264 | 0.0 | 0.0 | 0.00 | 0.00 | 0.00 | 53 | 1002.6 |
| 20260504012004 | 61 | 264 | 0.0 | 0.0 | 0.00 | 0.00 | 0.00 | 51 | 1002.5 |
| 20260504011005 | 62 | 264 | 0.0 | 0.0 | 0.00 | 0.00 | 0.00 | 49 | 1002.5 |
| 20260504010504 | 62 | 264 | 0.0 | 0.0 | 0.00 | 0.00 | 0.00 | 48 | 1002.6 |
| 20260504010004 | 63 | 264 | 0.0 | 0.0 | 0.00 | 0.00 | 0.00 | 47 | 1002.6 |
| 20260504004504 | 65 | 264 | 0.0 | 0.0 | 0.00 | 0.00 | 0.00 | 44 | 1002.4 |
| 20260504004004 | 66 | 264 | 0.0 | 2.6 | 0.00 | 0.00 | 0.00 | 43 | 1002.4 |
| 20260504003504 | 66 | 319 | 0.9 | 1.7 | 0.00 | 0.00 | 0.00 | 42 | 1002.5 |
| 20260504002504 | 67 | 257 | 1.7 | 2.6 | 0.00 | 0.00 | 0.00 | 40 | 1002.4 |
| 20260504001504 | 67 | 226 | 1.7 | 4.3 | 0.00 | 0.00 | 0.00 | 40 | 1002.3 |
| 20260504001004 | 67 | 241 | 1.7 | 2.6 | 0.00 | 0.00 | 0.00 | 39 | 1002.3 |
| 20260504000505 | 67 | 289 | 2.6 | 4.3 | 0.00 | 0.00 | 0.00 | 39 | 1002.3 |
| 20260503235004 | 68 | 270 | 2.6 | 7.0 | 0.00 | 0.00 | 0.00 | 38 | 1002.2 |
| 20260503234505 | 68 | 239 | 2.6 | 7.8 | 0.00 | 0.00 | 0.00 | 38 | 1002.2 |
| 20260503234005 | 68 | 255 | 3.5 | 7.0 | 0.00 | 0.00 | 0.00 | 38 | 1002.1 |
| 20260503233505 | 68 | 251 | 1.7 | 4.3 | 0.00 | 0.00 | 0.00 | 39 | 1002.2 |
| 20260503233004 | 68 | 309 | 2.6 | 7.0 | 0.00 | 0.00 | 0.00 | 40 | 1002.2 |
| 20260503232506 | 68 | 280 | 1.7 | 2.6 | 0.00 | 0.00 | 0.00 | 40 | 1002.2 |
| 20260503232005 | 68 | 235 | 1.7 | 6.1 | 0.00 | 0.00 | 0.00 | 41 | 1002.3 |
| 20260503230504 | 68 | 246 | 0.9 | 5.2 | 0.00 | 0.00 | 0.00 | 41 | 1002.4 |
| 20260503230004 | 68 | 250 | 4.3 | 7.0 | 0.00 | 0.00 | 0.00 | 41 | 1002.4 |
| 20260503225506 | 68 | 267 | 2.6 | 6.1 | 0.00 | 0.00 | 0.00 | 40 | 1002.6 |
| 20260503225004 | 68 | 296 | 1.7 | 2.6 | 0.00 | 0.00 | 0.00 | 43 | 1002.5 |
| 20260503224005 | 68 | 259 | 2.6 | 6.1 | 0.00 | 0.00 | 0.00 | 44 | 1002.5 |
| 20260503223005 | 68 | 273 | 1.7 | 6.1 | 0.00 | 0.00 | 0.00 | 43 | 1002.7 |
| 20260503222504 | 68 | 240 | 1.7 | 6.1 | 0.00 | 0.00 | 0.00 | 42 | 1002.6 |
| 20260503222004 | 68 | 223 | 2.6 | 7.8 | 0.00 | 0.00 | 0.00 | 41 | 1002.7 |
| 20260503221504 | 68 | 263 | 1.7 | 10.4 | 0.00 | 0.00 | 0.00 | 43 | 1002.6 |
| 20260503221004 | 68 | 239 | 2.6 | 7.0 | 0.00 | 0.00 | 0.00 | 43 | 1002.6 |
| 20260503220504 | 68 | 236 | 4.3 | 10.4 | 0.00 | 0.00 | 0.00 | 42 | 1002.9 |
| 20260503215505 | 68 | 245 | 2.6 | 6.1 | 0.00 | 0.00 | 0.00 | 42 | 1002.7 |
| 20260503215004 | 68 | 197 | 2.6 | 7.0 | 0.00 | 0.00 | 0.00 | 41 | 1002.7 |
| 20260503214004 | 68 | 239 | 4.3 | 7.8 | 0.00 | 0.00 | 0.00 | 40 | 1002.7 |
| 20260503213004 | 68 | 221 | 2.6 | 7.0 | 0.00 | 0.00 | 0.00 | 42 | 1002.8 |
| 20260503212504 | 68 | 232 | 3.5 | 7.0 | 0.00 | 0.00 | 0.00 | 43 | 1002.8 |
| 20260503212004 | 67 | 191 | 1.7 | 7.0 | 0.00 | 0.00 | 0.00 | 43 | 1002.9 |
| 20260503211004 | 68 | 237 | 3.5 | 7.0 | 0.00 | 0.00 | 0.00 | 43 | 1003.0 |
| 20260503210504 | 68 | 230 | 2.6 | 8.7 | 0.00 | 0.00 | 0.00 | 43 | 1003.1 |
| 20260503210004 | 67 | 233 | 0.9 | 5.2 | 0.00 | 0.00 | 0.00 | 44 | 1003.1 |
| 20260503205504 | 67 | 246 | 1.7 | 6.1 | 0.00 | 0.00 | 0.00 | 44 | 1003.2 |
| 20260503205004 | 67 | 245 | 2.6 | 7.0 | 0.00 | 0.00 | 0.00 | 43 | 1003.2 |
| 20260503204004 | 67 | 225 | 3.5 | 7.0 | 0.00 | 0.00 | 0.00 | 45 | 1003.5 |
| 20260503202504 | 67 | 238 | 2.6 | 7.8 | 0.00 | 0.00 | 0.00 | 46 | 1003.6 |
| 20260503202004 | 66 | 229 | 4.3 | 10.4 | 0.00 | 0.00 | 0.00 | 42 | 1003.7 |
| 20260503201504 | 66 | 262 | 1.7 | 10.4 | 0.00 | 0.00 | 0.00 | 45 | 1003.9 |
| 20260503195006 | 66 | 231 | 4.3 | 12.2 | 0.00 | 0.00 | 0.00 | 45 | 1004.1 |
| 20260503194004 | 66 | 216 | 2.6 | 7.8 | 0.00 | 0.00 | 0.00 | 42 | 1004.2 |
| 20260503193504 | 65 | 243 | 2.6 | 8.7 | 0.00 | 0.00 | 0.00 | 42 | 1004.4 |
| 20260503193005 | 66 | 224 | 4.3 | 10.4 | 0.00 | 0.00 | 0.00 | 44 | 1004.3 |
| 20260503192504 | 65 | 250 | 2.6 | 10.4 | 0.00 | 0.00 | 0.00 | 44 | 1004.4 |
| 20260503191505 | 65 | 244 | 2.6 | 13.9 | 0.00 | 0.00 | 0.00 | 45 | 1004.4 |
| 20260503184004 | 64 | 239 | 3.5 | 10.4 | 0.00 | 0.00 | 0.00 | 47 | 1004.6 |
| 20260503182005 | 63 | 222 | 3.5 | 10.4 | 0.00 | 0.00 | 0.00 | 49 | 1005.0 |
| 20260503175504 | 62 | 201 | 4.3 | 7.8 | 0.00 | 0.00 | 0.00 | 47 | 1005.3 |
| 20260503175005 | 62 | 190 | 1.7 | 7.0 | 0.00 | 0.00 | 0.00 | 52 | 1005.4 |
| 20260503172504 | 61 | 266 | 5.2 | 13.9 | 0.00 | 0.00 | 0.00 | 47 | 1005.6 |
| 20260503172005 | 62 | 220 | 4.3 | 10.4 | 0.00 | 0.00 | 0.00 | 47 | 1005.6 |
| 20260503171504 | 61 | 225 | 4.3 | 10.4 | 0.00 | 0.00 | 0.00 | 46 | 1005.7 |
| 20260503130504 | 52 | 202 | 2.6 | 8.7 | 0.00 | 0.00 | 0.00 | 62 | 1008.9 |
| 20260503080504 | 48 | 246 | 0.9 | 2.6 | 0.00 | 0.00 | 0.00 | 52 | 1010.4 |
| 20260503072503 | 48 | 229 | 0.9 | 2.6 | 0.00 | 0.00 | 0.00 | 53 | 1010.5 |
| 20260503071503 | 48 | 257 | 0.9 | 2.6 | 0.00 | 0.00 | 0.00 | 52 | 1010.7 |
| 20260503070504 | 48 | 234 | 0.9 | 2.6 | 0.00 | 0.00 | 0.00 | 51 | 1010.8 |
| 20260503055004 | 50 | 242 | 0.9 | 2.6 | 0.00 | 0.00 | 0.00 | 48 | 1011.2 |
| 20260503053503 | 50 | 244 | 1.7 | 2.6 | 0.00 | 0.00 | 0.00 | 48 | 1011.4 |
| 20260503053004 | 50 | 242 | 0.9 | 2.6 | 0.00 | 0.00 | 0.00 | 48 | 1011.4 |
| 20260503052004 | 50 | 234 | 0.0 | 2.6 | 0.00 | 0.00 | 0.00 | 48 | 1011.5 |
| 20260503050504 | 50 | 240 | 0.9 | 2.6 | 0.00 | 0.00 | 0.00 | 47 | 1011.6 |
| 20260503045503 | 50 | 256 | 0.9 | 2.6 | 0.00 | 0.00 | 0.00 | 47 | 1011.6 |
| 20260503044504 | 50 | 227 | 0.9 | 2.6 | 0.00 | 0.00 | 0.00 | 47 | 1011.7 |
| 20260503043504 | 50 | 216 | 0.0 | 1.7 | 0.00 | 0.00 | 0.00 | 47 | 1011.8 |
| 20260503042503 | 50 | 209 | 1.7 | 2.6 | 0.00 | 0.00 | 0.00 | 47 | 1011.9 |
| 20260503040004 | 49 | 246 | 0.0 | 2.6 | 0.00 | 0.00 | 0.00 | 50 | 1012.1 |
| 20260503034504 | 49 | 247 | 0.9 | 1.7 | 0.00 | 0.00 | 0.00 | 49 | 1012.2 |
| 20260503032504 | 49 | 246 | 0.0 | 1.7 | 0.00 | 0.00 | 0.00 | 49 | 1012.4 |
| 20260503031503 | 49 | 246 | 0.0 | 0.0 | 0.00 | 0.00 | 0.00 | 51 | 1012.4 |
| 20260503030503 | 49 | 246 | 0.0 | 0.0 | 0.00 | 0.00 | 0.00 | 51 | 1012.4 |
| 20260503025505 | 48 | 246 | 0.0 | 0.0 | 0.00 | 0.00 | 0.00 | 51 | 1012.5 |
| 20260503025005 | 48 | 246 | 0.0 | 0.0 | 0.00 | 0.00 | 0.00 | 51 | 1012.6 |